Погода в Кобане

Гватемала     15°28′16″N   90°22′22″W
темп.,
°C
ветер,
м/с
пор.,
м/с
влажн.,
%
обл.,
%
осадки,
мм/ч
давл.,
гПа
погр.,
м
9 августа, вт
вт900:00+15ю1196100 0.0 101923
03:00+15зсз0098100 0.1 101732
06:00+15ю0099100 0.1 101821
09:00+19с129081 0.4 1018580
12:00+18ссв129889 2.4 1017346
15:00+19св139765 4.9 1015356
18:00+17св12100100 9.6 1017138
21:00+16юв119998 1.5 101862
10 августа, ср
ср1000:00+16з009996 2.1 101819
03:00+16з1110099 0.5 101756
06:00+16ююз119941 0.8 101721
09:00+22ссз117229 0.0 1017679
12:00+19ссв1298100 2.5 1017232
15:00+17св12100100 5.5 1016139
18:00+17юв1299100 12.4 101678
21:00+16зсз00100100 0.5 101828
11 августа, чт
чт1100:00+16юз119994 0.5 101824
03:00+15ю1199100 0.0 101615
06:00+14ююв119895 0.0 101713
09:00+21св117284 0.0 1017611
12:00+21ссв2292100 1.6 1016554
15:00+20всв1296100 5.8 1015400
18:00+17всв1399100 9.9 101687
21:00+16в0199100 1.1 101822
12 августа, пт
пт1200:00+16з019980 1.2 101816
03:00+15ююз119919 0.0 101714
06:00+14ю119810 0.0 101715
09:00+21с117025 0.0 1017737
12:00+20с128886 0.9 1017553
15:00+20св129563 3.8 1015502
18:00+18вюв119872 5.9 101656
21:00+16ююв119820 0.4 101826
13 августа, сб
сб1300:00+15ю119833 0.4 101822
03:00+14ююз119747 0.0 101718
06:00+14ю119512 0.0 101717
09:00+22с11619 0.0 1017863
12:00+25с325016 0.0 10161815
15:00+23ссз236384 0.1 10141163
18:00+18с119011 0.4 101614
21:00+15ююв11961 0.1 101821